Weather in Angasolka

Russia / Irkutsk Oblast     51°45′11″N   103°44′57″E
temp.,
°C
wind,
m/s
gust,
m/s
humid.,
%
clouds,
%
prec.,
mm/h
press.,
hPa
HPBL,
m
15 may, sat
sat1523:00+3wsw11561 0.0 101613
02:00+2wsw22625 0.0 101628
05:00+1w3466100 0.0 101650
08:00+6nw495747 0.0 1018580
11:00+8nw256697 0.1 1020958
14:00+10s125081 0.1 10181149
17:00+11s134896 0.0 10161197
20:00+8s2263100 0.0 101616
16 may, sun
sun1623:00+6w226929 0.0 101823
02:00+5wsw327015 0.0 101827
05:00+4wsw33705 0.0 101635
08:00+10w35515 0.0 1013180
11:00+16nw5835100 0.0 10121177
14:00+14n345548 0.0 1014930
17:00+13ene2362100 0.0 1012470
20:00+10e1275100 0.0 101256
17 may, mon
mon1723:00+7ese118636 0.0 101011
02:00+6sw018977 0.0 100713
05:00+6wsw2382100 0.0 100436
08:00+10n2269100 0.0 1003141
11:00+11n567499 0.0 1005735
14:00+6nw1489100 1.1 1010526
17:00+5wsw1391100 2.3 1013407
20:00+5w1386100 2.8 1014278
18 may, tue
tue1823:00+4sw338877 0.1 101637
02:00+3w2388100 0.1 101733
05:00+3w2288100 0.0 101626
08:00+6w117497 0.0 1015221
11:00+7e1163100 0.0 1012798
14:00+9ese225646 0.0 1010879
17:00+9ese2256100 0.0 1007521
20:00+6ese1167100 0.0 100629
19 may, wed
wed1923:00+5nnw2267100 0.0 100518
02:00+4nw2281100 0.0 100519
05:00+3nw1192100 0.0 100413
08:00+6nne1282100 0.1 1004342
11:00+6ene228597 0.2 1005387
14:00+8e337072 0.2 1002447
17:00+7ese347537 0.1 1000295
20:00+5se1293100 0.5 999157